Alamosa, CO

1:27 AM MDT on September 16, 2019 (GMT -0600)
San Luis Valley Regional / Bergman Field

Weather History for KALS - June, 2019

Change the Weather History Date:

Thursday, June 13, 2019

  Actual Average Record
Temperature  
Mean Temperature 61 °F 59 °F  
Max Temperature 82 °F 78 °F 88 °F (1946)
Min Temperature 40 °F 40 °F 26 °F (2008)
Degree Days  
Heating Degree Days 4 6  
Month to date heating degree days 95 100  
Since 1 June heating degree days 95 100  
Since 1 July heating degree days 8520 8526  
Cooling Degree Days 0 0  
Month to date cooling degree days 0 0  
Year to date cooling degree days 0 0  
Since 1 June cooling degree days 0 0  
Growing Degree Days 10 (Base 50)    
Moisture  
Dew Point 34 °F    
Average Humidity 44    
Maximum Humidity 77    
Minimum Humidity 11    
Precipitation  
Precipitation T in 0.02 in 0.57 in (1969)
Month to date precipitation 0.15 0.19  
Year to date precipitation 4.84 2.41  
Snow  
Snow 0.00 in 0.00 in 0.20 in (1983)
Month to date snowfall 0.0 0.0  
Since 1 June snowfall 0.0 0.0  
Since 1 July snowfall 54.9 27.6  
Snow Depth 0.00 in    
Sea Level Pressure  
Sea Level Pressure 29.94 in    
Wind  
Wind Speed 8 mph (NW)    
Max Wind Speed 35 mph    
Max Gust Speed 50 mph    
Visibility 10 miles    
Events      
T = Trace of Precipitation, MM = Missing Value Source: NWS Daily Summary

Daily Weather History Graph

Daily Weather History Graph

Search for Another Location

Airport or City:

Astronomy

Jun. 13, 2019 Rise Set
Actual Time 5:42 AM MDT 8:25 PM MDT
Civil Twilight 5:11 AM MDT 8:56 PM MDT
Nautical Twilight 4:32 AM MDT 9:35 PM MDT
Astronomical Twilight 3:48 AM MDT 10:18 PM MDT
Moon 4:47 PM MDT (6/13) 3:23 AM MDT (6/13)
Length of Visible Light 15h 45m
Length of Day
14h 43m
Waxing Gibbous, 86% of the Moon is Illuminated
Jun 13
Waxing Gibbous
Jun 17
Full
Jun 25
Last Quarter
Jul 2
New
Jul 9
First Quarter

Hourly Weather History & Observations

Time (MDT) Temp. Windchill Dew Point Humidity Pressure Visibility Wind Dir Wind Speed Gust Speed Precip Events Conditions
12:52 AM 53.1 °F - 41.0 °F 64% 29.99 in 10.0 mi SE 8.1 mph - N/A   Clear
1:52 AM 48.0 °F - 41.0 °F 77% 30.00 in 10.0 mi SE 8.1 mph - N/A   Clear
2:52 AM 46.9 °F - 39.9 °F 77% 29.99 in 10.0 mi ESE 5.8 mph - N/A   Partly Cloudy
3:52 AM 46.9 °F - 37.0 °F 68% 29.98 in 10.0 mi ENE 4.6 mph - N/A   Clear
4:52 AM 46.0 °F 42.5 °F 37.0 °F 71% 30.00 in 10.0 mi South 6.9 mph - N/A   Clear
5:52 AM 42.1 °F 40.2 °F 36.0 °F 79% 30.04 in 10.0 mi NW 3.5 mph - N/A   Clear
6:52 AM 46.9 °F - 39.0 °F 74% 30.04 in 10.0 mi Calm Calm - N/A   Clear
7:52 AM 55.9 °F - 37.0 °F 49% 30.03 in 10.0 mi North - - N/A   Clear
8:52 AM 61.0 °F - 39.0 °F 44% 30.00 in 10.0 mi North - - N/A   Clear
9:52 AM 64.9 °F - 39.9 °F 40% 29.98 in 10.0 mi Calm Calm - N/A   Clear
10:52 AM 70.0 °F - 39.9 °F 33% 29.96 in 10.0 mi SSE 8.1 mph 17.3 mph N/A   Clear
11:52 AM 73.9 °F - 36.0 °F 25% 29.94 in 10.0 mi Variable 5.8 mph - N/A   Clear
12:52 PM 79.0 °F - 28.9 °F 16% 29.90 in 10.0 mi Variable 6.9 mph - N/A   Clear
1:52 PM 81.0 °F - 21.9 °F 11% 29.87 in 10.0 mi SW 13.8 mph 27.6 mph N/A   Clear
2:38 PM 75.9 °F - 32.0 °F 20% 30.16 in 10.0 mi North 23.0 mph 32.2 mph N/A   Partly Cloudy
2:52 PM 75.0 °F - 27.0 °F 17% 29.92 in 10.0 mi North 17.3 mph - N/A   Partly Cloudy
3:52 PM 73.0 °F - 34.0 °F 24% 29.93 in 10.0 mi Variable 5.8 mph - 0.00 in   Scattered Clouds
4:52 PM 73.0 °F - 27.0 °F 18% 29.90 in 10.0 mi WNW 17.3 mph 35.7 mph N/A   Clear
5:52 PM 75.9 °F - 28.0 °F 17% 29.88 in 10.0 mi WNW 15.0 mph - N/A   Clear
6:52 PM 75.9 °F - 28.0 °F 17% 29.83 in 10.0 mi NW 12.7 mph - N/A   Clear
7:52 PM 71.1 °F - 33.1 °F 25% 29.81 in 10.0 mi NW 9.2 mph - N/A   Clear
8:52 PM 66.0 °F - 28.9 °F 25% 29.83 in 10.0 mi NNW 6.9 mph - N/A   Clear
9:52 PM 61.0 °F - 28.9 °F 30% 29.86 in 10.0 mi North 4.6 mph - N/A   Clear
10:52 PM 51.1 °F - 32.0 °F 48% 29.89 in 10.0 mi SW 3.5 mph - N/A   Clear
11:52 PM 51.1 °F - 36.0 °F 56% 29.87 in 10.0 mi West 5.8 mph - N/A   Clear